| time (UTC) | temp F | wind direction | speed MPH | gust MPH | rain 1hr in | rain 24hr in | rain mn in | humidity % | barometer mb |
| 20260905193517 | 75 | 45 | 3.0 | 6.0 | 0.00 | 0.00 | 0.00 | 82 | 1019.9 |
| 20260905192517 | 74 | 45 | 4.0 | 7.0 | 0.00 | 0.00 | 0.00 | 81 | 1019.9 |
| 20260905191517 | 74 | 68 | 1.0 | 4.0 | 0.00 | 0.00 | 0.00 | 84 | 1020.0 |
| 20260905190517 | 73 | 45 | 3.0 | 7.0 | 0.00 | 0.00 | 0.00 | 85 | 1019.9 |
| 20260905185517 | 73 | 68 | 4.0 | 8.0 | 0.00 | 0.00 | 0.00 | 85 | 1019.9 |
| 20260905184517 | 73 | 45 | 4.0 | 8.0 | 0.00 | 0.00 | 0.00 | 84 | 1020.1 |
| 20260905183517 | 72 | 45 | 3.0 | 6.0 | 0.00 | 0.00 | 0.00 | 88 | 1020.1 |
| 20260905182517 | 71 | 45 | 1.0 | 3.0 | 0.00 | 0.00 | 0.00 | 89 | 1020.1 |
| 20260905181537 | 71 | 68 | 2.0 | 5.0 | 0.00 | 0.00 | 0.00 | 88 | 1020.2 |
| 20260905180517 | 71 | 45 | 3.0 | 6.0 | 0.00 | 0.00 | 0.00 | 88 | 1020.0 |
| 20260905175517 | 71 | 45 | 4.0 | 7.0 | 0.00 | 0.00 | 0.00 | 89 | 1020.0 |
| 20260905174538 | 71 | 45 | 5.0 | 9.0 | 0.00 | 0.00 | 0.00 | 89 | 1020.0 |
| 20260905173539 | 71 | 23 | 4.0 | 8.0 | 0.00 | 0.00 | 0.00 | 90 | 1020.0 |
| 20260905172517 | 70 | 45 | 5.0 | 9.0 | 0.00 | 0.00 | 0.00 | 90 | 1020.1 |
| 20260905171518 | 71 | 45 | 4.0 | 8.0 | 0.00 | 0.00 | 0.00 | 90 | 1020.0 |
| 20260905170517 | 70 | 45 | 4.0 | 8.0 | 0.00 | 0.00 | 0.00 | 91 | 1020.2 |
| 20260905165517 | 70 | 45 | 5.0 | 8.0 | 0.00 | 0.00 | 0.00 | 92 | 1020.3 |
| 20260905164537 | 70 | 45 | 4.0 | 6.0 | 0.00 | 0.00 | 0.00 | 92 | 1020.4 |
| 20260905163517 | 70 | 45 | 5.0 | 9.0 | 0.00 | 0.00 | 0.00 | 92 | 1020.2 |
| 20260905162517 | 70 | 45 | 5.0 | 9.0 | 0.00 | 0.00 | 0.00 | 92 | 1020.2 |
| 20260905161516 | 70 | 45 | 5.0 | 8.0 | 0.00 | 0.00 | 0.00 | 92 | 1020.2 |
| 20260905160517 | 70 | 45 | 5.0 | 9.0 | 0.00 | 0.00 | 0.00 | 92 | 1020.2 |
| 20260905155516 | 70 | 45 | 5.0 | 10.0 | 0.00 | 0.00 | 0.00 | 92 | 1020.0 |
| 20260905154537 | 70 | 45 | 6.0 | 9.0 | 0.00 | 0.00 | 0.00 | 92 | 1019.9 |
| 20260905153517 | 70 | 45 | 6.0 | 10.0 | 0.00 | 0.00 | 0.00 | 92 | 1019.9 |
| 20260905152516 | 70 | 45 | 6.0 | 11.0 | 0.00 | 0.00 | 0.00 | 93 | 1019.7 |
| 20260905151516 | 70 | 45 | 7.0 | 12.0 | 0.00 | 0.00 | 0.00 | 93 | 1019.9 |
| 20260905150517 | 70 | 45 | 6.0 | 9.0 | 0.00 | 0.00 | 0.00 | 93 | 1019.7 |
| 20260905145516 | 69 | 45 | 6.0 | 10.0 | 0.00 | 0.00 | 0.00 | 94 | 1019.3 |
| 20260905144517 | 69 | 45 | 6.0 | 12.0 | 0.00 | 0.00 | 0.00 | 94 | 1019.2 |
| 20260905143516 | 68 | 45 | 7.0 | 13.0 | 0.00 | 0.00 | 0.00 | 95 | 1019.0 |
| 20260905142536 | 68 | 45 | 7.0 | 14.0 | 0.00 | 0.00 | 0.00 | 95 | 1018.9 |
| 20260905141517 | 68 | 23 | 5.0 | 9.0 | 0.00 | 0.00 | 0.00 | 96 | 1019.0 |
| 20260905140517 | 67 | 23 | 5.0 | 9.0 | 0.00 | 0.00 | 0.00 | 97 | 1019.2 |
| 20260905135517 | 67 | 23 | 4.0 | 9.0 | 0.00 | 0.00 | 0.00 | 97 | 1019.1 |
| 20260905134537 | 67 | 23 | 3.0 | 7.0 | 0.00 | 0.00 | 0.00 | 97 | 1019.4 |
| 20260905133516 | 67 | 338 | 3.0 | 5.0 | 0.00 | 0.00 | 0.00 | 98 | 1019.5 |
| 20260905132516 | 67 | 23 | 2.0 | 6.0 | 0.00 | 0.00 | 0.00 | 97 | 1019.3 |
| 20260905131517 | 66 | 0 | 2.0 | 6.0 | 0.00 | 0.00 | 0.00 | 97 | 1019.2 |
| 20260905130517 | 67 | 23 | 2.0 | 4.0 | 0.00 | 0.00 | 0.00 | 98 | 1019.1 |
| 20260905125516 | 67 | 23 | 4.0 | 8.0 | 0.00 | 0.00 | 0.00 | 98 | 1018.9 |
| 20260905124516 | 67 | 23 | 3.0 | 7.0 | 0.00 | 0.00 | 0.00 | 98 | 1018.8 |
| 20260905123516 | 67 | 23 | 3.0 | 6.0 | 0.00 | 0.00 | 0.00 | 98 | 1018.8 |
| 20260905122516 | 67 | 23 | 4.0 | 8.0 | 0.00 | 0.00 | 0.00 | 98 | 1018.5 |
| 20260905121516 | 66 | 45 | 3.0 | 6.0 | 0.00 | 0.00 | 0.00 | 98 | 1018.3 |
| 20260905120517 | 66 | 23 | 4.0 | 6.0 | 0.00 | 0.00 | 0.00 | 98 | 1018.3 |
| 20260905115516 | 66 | 23 | 3.0 | 7.0 | 0.00 | 0.00 | 0.00 | 98 | 1018.1 |
| 20260905114516 | 66 | 23 | 5.0 | 8.0 | 0.00 | 0.00 | 0.00 | 98 | 1018.1 |
| 20260905113516 | 66 | 23 | 5.0 | 9.0 | 0.00 | 0.00 | 0.00 | 98 | 1017.9 |
| 20260905112516 | 66 | 23 | 4.0 | 7.0 | 0.00 | 0.00 | 0.00 | 98 | 1017.9 |
| 20260905111517 | 66 | 0 | 2.0 | 5.0 | 0.00 | 0.01 | 0.00 | 98 | 1017.8 |
| 20260905110516 | 66 | 23 | 3.0 | 7.0 | 0.00 | 0.03 | 0.00 | 98 | 1017.9 |
| 20260905105516 | 66 | 45 | 3.0 | 7.0 | 0.00 | 0.03 | 0.00 | 98 | 1017.8 |
| 20260905104536 | 66 | 23 | 3.0 | 5.0 | 0.00 | 0.04 | 0.00 | 98 | 1017.8 |
| 20260905103516 | 67 | 23 | 3.0 | 6.0 | 0.00 | 0.08 | 0.00 | 98 | 1017.8 |
| 20260905102516 | 66 | 23 | 4.0 | 6.0 | 0.00 | 0.12 | 0.00 | 98 | 1017.8 |
| 20260905101516 | 66 | 23 | 3.0 | 7.0 | 0.00 | 0.13 | 0.00 | 98 | 1017.9 |
| 20260905100516 | 67 | 23 | 2.0 | 5.0 | 0.00 | 0.34 | 0.00 | 98 | 1017.9 |
| 20260905095516 | 67 | 23 | 3.0 | 9.0 | 0.00 | 0.38 | 0.00 | 98 | 1017.9 |
| 20260905094516 | 67 | 23 | 3.0 | 7.0 | 0.00 | 0.41 | 0.00 | 98 | 1017.7 |
| 20260905093516 | 67 | 0 | 3.0 | 7.0 | 0.00 | 0.57 | 0.00 | 98 | 1017.7 |
| 20260905092516 | 67 | 0 | 4.0 | 8.0 | 0.00 | 0.69 | 0.00 | 98 | 1017.5 |
| 20260905091516 | 67 | 23 | 5.0 | 9.0 | 0.00 | 0.85 | 0.00 | 98 | 1017.4 |
| 20260905090516 | 67 | 45 | 4.0 | 8.0 | 0.00 | 0.99 | 0.00 | 98 | 1017.5 |
| 20260905085516 | 67 | 23 | 4.0 | 7.0 | 0.00 | 1.05 | 0.00 | 98 | 1017.7 |
| 20260905084517 | 67 | 45 | 5.0 | 12.0 | 0.00 | 1.09 | 0.00 | 98 | 1017.5 |
| 20260905083516 | 68 | 0 | 3.0 | 6.0 | 0.00 | 1.14 | 0.00 | 98 | 1017.5 |
| 20260905082516 | 68 | 23 | 5.0 | 7.0 | 0.00 | 1.20 | 0.00 | 98 | 1017.5 |
| 20260905081515 | 68 | 23 | 3.0 | 7.0 | 0.00 | 1.26 | 0.00 | 98 | 1017.4 |
| 20260905080516 | 69 | 23 | 3.0 | 6.0 | 0.00 | 1.28 | 0.00 | 98 | 1017.4 |
| 20260905075516 | 69 | 23 | 2.0 | 5.0 | 0.00 | 1.28 | 0.00 | 98 | 1017.3 |
| 20260905074524 | 69 | 0 | 2.0 | 4.0 | 0.00 | 1.28 | 0.00 | 98 | 1017.2 |
| 20260905073516 | 69 | 23 | 3.0 | 8.0 | 0.00 | 1.28 | 0.00 | 98 | 1017.3 |
| 20260905072516 | 69 | 23 | 3.0 | 8.0 | 0.00 | 1.29 | 0.00 | 98 | 1017.2 |
| 20260905071516 | 69 | 23 | 3.0 | 4.0 | 0.00 | 1.30 | 0.00 | 98 | 1017.2 |
| 20260905070516 | 69 | 45 | 2.0 | 5.0 | 0.00 | 1.30 | 0.00 | 98 | 1017.1 |
| 20260905065516 | 69 | 45 | 1.0 | 3.0 | 0.00 | 1.30 | 0.00 | 98 | 1016.9 |
| 20260905064515 | 69 | 45 | 1.0 | 3.0 | 0.00 | 1.31 | 0.00 | 98 | 1017.1 |
| 20260905063516 | 69 | 45 | 2.0 | 5.0 | 0.00 | 1.35 | 0.00 | 98 | 1017.2 |
| 20260905062516 | 70 | 45 | 1.0 | 3.0 | 0.00 | 1.41 | 0.00 | 98 | 1017.3 |
| 20260905061516 | 70 | 45 | 1.0 | 3.0 | 0.00 | 1.41 | 0.00 | 98 | 1017.3 |
| 20260905060536 | 70 | 45 | 3.0 | 5.0 | 0.00 | 1.41 | 0.00 | 98 | 1017.2 |
| 20260905055516 | 70 | 68 | 2.0 | 6.0 | 0.00 | 1.41 | 0.00 | 98 | 1017.3 |
| 20260905054518 | 70 | 45 | 2.0 | 4.0 | 0.00 | 1.41 | 0.00 | 98 | 1017.3 |
| 20260905053516 | 70 | 45 | 3.0 | 7.0 | 0.00 | 1.41 | 0.00 | 98 | 1017.2 |
| 20260905052515 | 70 | 23 | 1.0 | 4.0 | 0.00 | 1.41 | 0.00 | 98 | 1017.3 |
| 20260905051516 | 70 | 0 | 1.0 | 3.0 | 0.00 | 1.41 | 0.00 | 98 | 1017.4 |
| 20260905050516 | 70 | 45 | 1.0 | 2.0 | 0.00 | 1.41 | 0.00 | 98 | 1017.4 |
| 20260905045516 | 70 | 45 | 2.0 | 4.0 | 0.00 | 1.41 | 1.41 | 98 | 1017.3 |
| 20260905044515 | 70 | 45 | 3.0 | 5.0 | 0.00 | 1.41 | 1.41 | 98 | 1017.3 |
| 20260905043516 | 70 | 45 | 2.0 | 6.0 | 0.00 | 1.42 | 1.41 | 98 | 1017.3 |
| 20260905042516 | 70 | 23 | 3.0 | 5.0 | 0.00 | 1.44 | 1.41 | 98 | 1017.2 |
| 20260905041516 | 70 | 23 | 2.0 | 4.0 | 0.00 | 1.50 | 1.41 | 98 | 1017.2 |
| 20260905040517 | 70 | 45 | 2.0 | 5.0 | 0.00 | 1.51 | 1.41 | 98 | 1017.1 |
| 20260905035517 | 70 | 23 | 3.0 | 6.0 | 0.00 | 1.51 | 1.41 | 98 | 1017.1 |
| 20260905034516 | 70 | 23 | 3.0 | 6.0 | 0.00 | 1.51 | 1.41 | 98 | 1017.1 |
| 20260905033536 | 70 | 23 | 3.0 | 7.0 | 0.00 | 1.52 | 1.41 | 98 | 1017.0 |
| 20260905032516 | 70 | 23 | 3.0 | 5.0 | 0.00 | 1.52 | 1.41 | 98 | 1017.1 |
| 20260905031516 | 70 | 23 | 2.0 | 3.0 | 0.00 | 1.52 | 1.41 | 98 | 1017.1 |
| 20260905030537 | 70 | 23 | 1.0 | 4.0 | 0.00 | 1.52 | 1.41 | 98 | 1017.2 |
| 20260905025515 | 70 | 45 | 1.0 | 2.0 | 0.00 | 1.52 | 1.41 | 98 | 1017.1 |
| 20260905024517 | 70 | 23 | 2.0 | 5.0 | 0.00 | 1.53 | 1.41 | 98 | 1017.0 |
| 20260905023536 | 71 | 45 | 3.0 | 6.0 | 0.00 | 1.54 | 1.41 | 97 | 1016.8 |
| 20260905022515 | 71 | 45 | 2.0 | 4.0 | 0.00 | 1.55 | 1.41 | 97 | 1016.8 |
| 20260905021516 | 71 | 45 | 3.0 | 5.0 | 0.00 | 1.57 | 1.41 | 97 | 1016.7 |
| 20260905020516 | 71 | 23 | 3.0 | 5.0 | 0.00 | 1.58 | 1.41 | 97 | 1016.6 |
| 20260905015515 | 71 | 45 | 3.0 | 5.0 | 0.00 | 1.59 | 1.41 | 97 | 1016.6 |
| 20260905014515 | 71 | 45 | 1.0 | 3.0 | 0.00 | 1.59 | 1.41 | 97 | 1016.7 |
| 20260905013517 | 71 | 45 | 1.0 | 4.0 | 0.00 | 1.59 | 1.41 | 97 | 1016.7 |
| 20260905012537 | 71 | 45 | 3.0 | 6.0 | 0.00 | 1.59 | 1.41 | 97 | 1016.7 |
| 20260905011517 | 71 | 45 | 2.0 | 4.0 | 0.00 | 1.59 | 1.41 | 97 | 1016.5 |
| 20260905010517 | 71 | 45 | 1.0 | 3.0 | 0.00 | 1.59 | 1.41 | 97 | 1016.4 |
| 20260905005518 | 71 | 45 | 2.0 | 4.0 | 0.00 | 1.59 | 1.41 | 97 | 1016.3 |
| 20260905004517 | 71 | 45 | 2.0 | 4.0 | 0.00 | 1.59 | 1.41 | 96 | 1016.2 |
| 20260905003519 | 71 | 45 | 3.0 | 6.0 | 0.00 | 1.59 | 1.41 | 96 | 1016.0 |
| 20260905002517 | 71 | 68 | 3.0 | 6.0 | 0.00 | 1.59 | 1.41 | 96 | 1016.1 |
| 20260905001517 | 72 | 45 | 2.0 | 5.0 | 0.00 | 1.59 | 1.41 | 96 | 1016.3 |
| 20260905000517 | 72 | 68 | 2.0 | 4.0 | 0.00 | 1.59 | 1.41 | 96 | 1016.2 |
| 20260904235517 | 72 | 68 | 3.0 | 6.0 | 0.00 | 1.59 | 1.41 | 96 | 1015.9 |
| 20260904234517 | 72 | 68 | 4.0 | 9.0 | 0.00 | 1.59 | 1.41 | 96 | 1015.7 |
| 20260904233518 | 72 | 68 | 3.0 | 6.0 | 0.00 | 1.59 | 1.41 | 96 | 1016.1 |
| 20260904232558 | 72 | 23 | 2.0 | 4.0 | 0.00 | 1.59 | 1.41 | 96 | 1016.1 |
| 20260904231517 | 73 | 45 | 3.0 | 6.0 | 0.00 | 1.59 | 1.41 | 96 | 1015.7 |
| 20260904230517 | 73 | 45 | 4.0 | 8.0 | 0.00 | 1.59 | 1.41 | 95 | 1015.7 |
| 20260904225518 | 73 | 45 | 4.0 | 6.0 | 0.00 | 1.59 | 1.41 | 96 | 1015.8 |
| 20260904224519 | 73 | 45 | 5.0 | 8.0 | 0.00 | 1.59 | 1.41 | 95 | 1015.6 |
| 20260904223518 | 73 | 68 | 3.0 | 6.0 | 0.00 | 1.59 | 1.41 | 96 | 1015.5 |
| 20260904222517 | 73 | 68 | 5.0 | 9.0 | 0.00 | 1.59 | 1.41 | 94 | 1015.4 |
| 20260904221537 | 73 | 45 | 5.0 | 10.0 | 0.00 | 1.59 | 1.41 | 94 | 1015.2 |
| 20260904220517 | 74 | 45 | 4.0 | 7.0 | 0.00 | 1.59 | 1.41 | 95 | 1015.3 |
| 20260904215539 | 74 | 45 | 4.0 | 7.0 | 0.00 | 1.59 | 1.41 | 94 | 1015.3 |
| 20260904214517 | 74 | 45 | 5.0 | 9.0 | 0.00 | 1.59 | 1.41 | 94 | 1015.3 |
| 20260904213517 | 74 | 45 | 2.0 | 6.0 | 0.00 | 1.59 | 1.41 | 94 | 1015.2 |
| 20260904212517 | 74 | 45 | 3.0 | 7.0 | 0.00 | 1.59 | 1.41 | 94 | 1015.1 |
| 20260904211517 | 75 | 45 | 2.0 | 6.0 | 0.00 | 1.59 | 1.41 | 95 | 1015.0 |
| 20260904210517 | 75 | 45 | 3.0 | 6.0 | 0.00 | 1.59 | 1.41 | 93 | 1014.9 |
| 20260904205517 | 75 | 45 | 4.0 | 8.0 | 0.00 | 1.59 | 1.41 | 94 | 1014.8 |
| 20260904204537 | 76 | 45 | 4.0 | 8.0 | 0.00 | 1.59 | 1.41 | 93 | 1014.8 |
| 20260904203538 | 76 | 23 | 3.0 | 7.0 | 0.00 | 1.59 | 1.41 | 94 | 1014.9 |
| 20260904202518 | 76 | 68 | 3.0 | 6.0 | 0.00 | 1.59 | 1.41 | 94 | 1014.9 |
| 20260904201517 | 77 | 45 | 3.0 | 6.0 | 0.00 | 1.59 | 1.41 | 94 | 1014.8 |
| 20260904200658 | 77 | 45 | 2.0 | 5.0 | 0.00 | 1.59 | 1.41 | 94 | 1015.1 |
| 20260904195517 | 78 | 0.0 | 2.0 | 0.00 | 1.59 | 1.41 | 96 | 1015.1 | |
| 20260904194517 | 78 | 0.0 | 1.0 | 0.00 | 1.59 | 1.41 | 95 | 1015.2 |